This is the latest recevied weather packets stored in our database for station/object W5CDN. If no packets are shown the sender has not sent any weather packets the latest 10 day(s).
| Time | Temp. | Humidity | Pressure | Rain* | Wind** | Luminosity | Snow |
|---|---|---|---|---|---|---|---|
| 1788388736 | 29.44° C | 69% | 1011.6 hPa | 0 mm | - | - | - |
| 1788388436 | 30° C | 68% | 1011.6 hPa | 0 mm | - | - | - |
| 1788388136 | 30.56° C | 66% | 1011.5 hPa | 0 mm | - | - | - |
| 1788387836 | 30° C | 66% | 1011.5 hPa | 0 mm | - | - | - |
| 1788387536 | 30.56° C | 66% | 1011.5 hPa | 0 mm | - | - | - |
| 1788387236 | 30.56° C | 66% | 1011.7 hPa | 0 mm | - | - | - |
| 1788386936 | 30.56° C | 66% | 1011.6 hPa | 0 mm | - | - | - |
| 1788386636 | 29.44° C | 68% | 1011.4 hPa | 0 mm | - | - | - |
| 1788386336 | 30.56° C | 67% | 1011.5 hPa | 0 mm | - | - | - |
| 1788386036 | 30.56° C | 67% | 1011.5 hPa | 0 mm | - | - | - |
| 1788385736 | 30.56° C | 68% | 1011.5 hPa | 0 mm | - | - | - |
| 1788385436 | 30.56° C | 67% | 1011.7 hPa | 0 mm | - | - | - |
| 1788385136 | 30.56° C | 67% | 1011.5 hPa | 0 mm | - | - | - |
| 1788384836 | 31.11° C | 66% | 1011.6 hPa | 0 mm | - | - | - |
| 1788384536 | 31.11° C | 65% | 1011.6 hPa | 0 mm | - | - | - |
| 1788384236 | 31.11° C | 64% | 1011.6 hPa | 0 mm | - | - | - |
| 1788383936 | 30° C | 66% | 1011.5 hPa | 0 mm | - | - | - |
| 1788383636 | 30.56° C | 66% | 1011.6 hPa | 0 mm | - | - | - |
| 1788383336 | 30.56° C | 66% | 1011.8 hPa | 0 mm | - | - | - |
| 1788383036 | 31.11° C | 65% | 1011.6 hPa | 0 mm | - | - | - |
| 1788382736 | 31.67° C | 63% | 1011.7 hPa | 0 mm | - | - | - |
| 1788382436 | 31.11° C | 64% | 1011.7 hPa | 0 mm | - | - | - |
| 1788382136 | 32.22° C | 63% | 1011.6 hPa | 0 mm | - | - | - |
| 1788381836 | 31.67° C | 63% | 1011.8 hPa | 0 mm | - | - | - |
| 1788381536 | 32.22° C | 63% | 1011.8 hPa | 0 mm | - | - | - |
* Rain latest hour (hover to see other rain measurements)
** Current wind speed in m/s (hover to see current wind gust speed)